Weather reports worldwide

Advertisment
Riga, Latvia (26422): temperature & dewpoint: 09.01.2021 19:00:00 - 15.01.2021 19:00:00 (EET)Riga, Latvia (26422): wind speed & gusts: 09.01.2021 19:00:00 - 15.01.2021 19:00:00 (EET)Riga, Latvia (26422): wind direction: 09.01.2021 19:00:00 - 15.01.2021 19:00:00 (EET)Riga, Latvia (26422): reduced air pressure: 09.01.2021 19:00:00 - 15.01.2021 19:00:00 (EET)Riga, Latvia (26422): visibility: 09.01.2021 19:00:00 - 15.01.2021 19:00:00 (EET)Riga, Latvia (26422): sunshine duration: 09.01.2021 19:00:00 - 15.01.2021 19:00:00 (EET)Riga, Latvia (26422): precipitation: 09.01.2021 19:00:00 - 15.01.2021 19:00:00 (EET)
Date & Time tt [°C] td [°C] ff [km/h] ff [kn] fx [km/h] fx [kn] dd ppp [hPa] vv [km] sd [min] rr [mm]
15.01.2021 19:00:00 - - - - - - - - - - -
15.01.2021 18:00:00 - - - - - - - - - - -
15.01.2021 17:00:00 -11,1 -15,0 11 6 27 14 NE 1017,9 16 0 0,0
15.01.2021 16:00:00 - - - - - - - - - - -
15.01.2021 15:00:00 - - - - - - - - - - -
15.01.2021 14:00:00 -10,6 -16,0 15 8 27 15 NE 1017,8 19 0 0,0
15.01.2021 13:00:00 - - - - - - - - - - -
15.01.2021 12:00:00 - - - - - - - - - - -
15.01.2021 11:00:00 -10,7 -14,3 15 8 32 18 ENE 1017,8 1,9 - 0,0
15.01.2021 10:00:00 - - - - - - - - - - -
15.01.2021 09:00:00 - - - - - - - - - - -
15.01.2021 08:00:00 -10,5 -14,8 11 6 20 11 ENE 1016,6 10 0 0,0
15.01.2021 07:00:00 - - - - - - - - - - -
15.01.2021 06:00:00 - - - - - - - - - - -
15.01.2021 05:00:00 -9,5 -13,8 18 10 39 21 ENE 1016,6 11 0 0,0
15.01.2021 04:00:00 - - - - - - - - - - -
15.01.2021 03:00:00 - - - - - - - - - - -
15.01.2021 02:00:00 -7,2 -11,8 19 10 32 17 NE 1015,2 12 0 0,0
15.01.2021 01:00:00 - - - - - - - - - - -
15.01.2021 00:00:00 - - - - - - - - - - -
14.01.2021 23:00:00 -5,7 -7,7 19 10 34 19 NE 1015,3 15 0 0,0
14.01.2021 22:00:00 - - - - - - - - - - -
14.01.2021 21:00:00 - - - - - - - - - - -
14.01.2021 20:00:00 -6,7 -9,2 13 7 25 14 NE 1016,1 16 0 0,0
14.01.2021 19:00:00 - - - - - - - - - - -
14.01.2021 18:00:00 - - - - - - - - - - -
14.01.2021 17:00:00 -6,9 -10,5 11 6 19 11 NNE 1015,7 16 0 0,0
14.01.2021 16:00:00 - - - - - - - - - - -
14.01.2021 15:00:00 - - - - - - - - - - -
14.01.2021 14:00:00 -6,5 -9,9 11 6 20 11 NE 1014,9 15 0 0,0
14.01.2021 13:00:00 - - - - - - - - - - -
14.01.2021 12:00:00 - - - - - - - - - - -
14.01.2021 11:00:00 -6,9 -9,4 21 11 - - ENE 1014,0 15 - -
14.01.2021 10:00:00 - - - - - - - - - - -
14.01.2021 09:00:00 - - - - - - - - - - -
14.01.2021 08:00:00 -5,2 -7,2 19 11 34 19 ENE 1011,7 13 0 0,0
14.01.2021 07:00:00 - - - - - - - - - - -
14.01.2021 06:00:00 - - - - - - - - - - -
14.01.2021 05:00:00 -2,9 -4,8 10 6 19 10 NE 1011,1 8 0 0,0
14.01.2021 04:00:00 - - - - - - - - - - -
14.01.2021 03:00:00 - - - - - - - - - - -
14.01.2021 02:00:00 -2,3 -4,9 14 8 27 15 E 1009,8 15 0 0,0
14.01.2021 01:00:00 - - - - - - - - - - -
14.01.2021 00:00:00 - - - - - - - - - - -
13.01.2021 23:00:00 -1,4 -3,5 16 9 30 16 ESE 1008,6 10 0 0,0
13.01.2021 22:00:00 - - - - - - - - - - -
13.01.2021 21:00:00 - - - - - - - - - - -
13.01.2021 20:00:00 -1,0 -3,0 16 8 28 15 ESE 1007,5 12 0 0,0
13.01.2021 19:00:00 - - - - - - - - - - -
13.01.2021 18:00:00 - - - - - - - - - - -
13.01.2021 17:00:00 -0,5 -2,5 16 8 32 17 ESE 1006,3 8 0 0,0
13.01.2021 16:00:00 - - - - - - - - - - -
13.01.2021 15:00:00 - - - - - - - - - - -
13.01.2021 14:00:00 -0,1 -1,6 18 10 30 16 SE 1005,0 8 0 0,2
13.01.2021 13:00:00 - - - - - - - - - - -
13.01.2021 12:00:00 - - - - - - - - - - -
13.01.2021 11:00:00 -0,6 -1,2 12 6 23 12 SE 1004,5 1,0 0 0,4
13.01.2021 10:00:00 - - - - - - - - - - -
13.01.2021 09:00:00 - - - - - - - - - - -
13.01.2021 08:00:00 -0,9 -1,8 13 7 30 16 SE 1002,7 1,6 0 0,4
13.01.2021 07:00:00 - - - - - - - - - - -
13.01.2021 06:00:00 - - - - - - - - - - -
13.01.2021 05:00:00 -0,9 -1,5 10 5 21 12 SE 1002,1 1,2 - 0,5
13.01.2021 04:00:00 - - - - - - - - - - -
13.01.2021 03:00:00 - - - - - - - - - - -
13.01.2021 02:00:00 -1,1 -2,1 16 8 25 13 SSE 1001,9 3,0 0 0,2
13.01.2021 01:00:00 - - - - - - - - - - -
13.01.2021 00:00:00 - - - - - - - - - - -
12.01.2021 23:00:00 -1,3 -2,4 17 9 28 15 SSE 1002,0 1,6 - 0,2
12.01.2021 22:00:00 - - - - - - - - - - -
12.01.2021 21:00:00 - - - - - - - - - - -
12.01.2021 20:00:00 -1,1 -2,3 16 9 37 20 S 1001,3 1,4 - 0,3
12.01.2021 19:00:00 - - - - - - - - - - -
12.01.2021 18:00:00 - - - - - - - - - - -
12.01.2021 17:00:00 -1,6 -2,5 19 10 33 18 S 1001,3 0,9 - 0,5
12.01.2021 16:00:00 - - - - - - - - - - -
12.01.2021 15:00:00 - - - - - - - - - - -
12.01.2021 14:00:00 -0,9 -3,5 25 14 49 26 S 1001,5 1,8 - 0,0
12.01.2021 13:00:00 - - - - - - - - - - -
12.01.2021 12:00:00 - - - - - - - - - - -
12.01.2021 11:00:00 -0,7 -3,3 29 16 56 30 S 1002,7 7 - 0,0
12.01.2021 10:00:00 - - - - - - - - - - -
12.01.2021 09:00:00 - - - - - - - - - - -
12.01.2021 08:00:00 -0,4 -1,3 28 15 54 29 S 1003,8 1,1 - 0,1
12.01.2021 07:00:00 - - - - - - - - - - -
12.01.2021 06:00:00 - - - - - - - - - - -
12.01.2021 05:00:00 0,4 -1,0 19 10 43 23 S 1006,2 2,0 - 0,0
12.01.2021 04:00:00 - - - - - - - - - - -
12.01.2021 03:00:00 - - - - - - - - - - -
12.01.2021 02:00:00 0,1 -1,3 19 10 39 21 S 1008,3 4,9 - 0,0
12.01.2021 01:00:00 - - - - - - - - - - -
12.01.2021 00:00:00 - - - - - - - - - - -
11.01.2021 23:00:00 -0,2 -1,4 22 12 40 22 S 1011,1 8 - 0,0
11.01.2021 22:00:00 - - - - - - - - - - -
11.01.2021 21:00:00 - - - - - - - - - - -
11.01.2021 20:00:00 -0,5 -2,0 17 9 30 16 SSW 1012,7 12 - 0,0
11.01.2021 19:00:00 - - - - - - - - - - -
11.01.2021 18:00:00 - - - - - - - - - - -
11.01.2021 17:00:00 -0,1 -1,2 8 4 15 8 S 1013,5 8 - 0,0
11.01.2021 16:00:00 - - - - - - - - - - -
11.01.2021 15:00:00 - - - - - - - - - - -
11.01.2021 14:00:00 -0,3 -1,5 12 7 26 14 SSW 1013,5 8 - 0,0
11.01.2021 13:00:00 - - - - - - - - - - -
11.01.2021 12:00:00 - - - - - - - - - - -
11.01.2021 11:00:00 -1,1 -1,7 16 9 31 17 S 1014,2 0,8 - 0,4
11.01.2021 10:00:00 - - - - - - - - - - -
11.01.2021 09:00:00 - - - - - - - - - - -
11.01.2021 08:00:00 -2,4 -3,3 16 9 30 16 SSE 1015,1 0,9 - 0,3
11.01.2021 07:00:00 - - - - - - - - - - -
11.01.2021 06:00:00 - - - - - - - - - - -
11.01.2021 05:00:00 -2,7 -4,2 14 8 37 20 S 1016,7 1,9 - 0,0
11.01.2021 04:00:00 - - - - - - - - - - -
11.01.2021 03:00:00 - - - - - - - - - - -
11.01.2021 02:00:00 -2,9 -4,8 16 9 32 17 S 1017,9 8 - 0,0
11.01.2021 01:00:00 - - - - - - - - - - -
11.01.2021 00:00:00 - - - - - - - - - - -
10.01.2021 23:00:00 -3,2 -5,1 16 8 30 16 SSW 1019,4 15 - 0,0
10.01.2021 22:00:00 - - - - - - - - - - -
10.01.2021 21:00:00 - - - - - - - - - - -
10.01.2021 20:00:00 -3,0 -4,8 14 8 28 15 SSW 1020,2 14 - 0,0
10.01.2021 19:00:00 - - - - - - - - - - -
10.01.2021 18:00:00 - - - - - - - - - - -
10.01.2021 17:00:00 -3,2 -5,0 14 7 24 13 SSW 1020,6 11 - 0,0
10.01.2021 16:00:00 - - - - - - - - - - -
10.01.2021 15:00:00 - - - - - - - - - - -
10.01.2021 14:00:00 -3,4 -5,8 9 5 20 11 SSW 1020,8 19 - 0,0
10.01.2021 13:00:00 - - - - - - - - - - -
10.01.2021 12:00:00 - - - - - - - - - - -
10.01.2021 11:00:00 -3,7 -5,8 11 6 16 9 SW 1021,2 14 - 0,0
10.01.2021 10:00:00 - - - - - - - - - - -
10.01.2021 09:00:00 - - - - - - - - - - -
10.01.2021 08:00:00 -4,0 -6,4 12 7 16 9 S 1020,2 14 - 0,0
10.01.2021 07:00:00 - - - - - - - - - - -
10.01.2021 06:00:00 - - - - - - - - - - -
10.01.2021 05:00:00 -4,1 -6,9 3 2 11 6 NE 1020,3 20 - 0,0
10.01.2021 04:00:00 - - - - - - - - - - -
10.01.2021 03:00:00 - - - - - - - - - - -
10.01.2021 02:00:00 -3,7 -6,2 4 2 10 6 ENE 1019,8 18 0 0,0
10.01.2021 01:00:00 - - - - - - - - - - -
10.01.2021 00:00:00 - - - - - - - - - - -
09.01.2021 23:00:00 -4,3 -6,8 7 4 14 7 NE 1019,6 18 0 0,0
09.01.2021 22:00:00 - - - - - - - - - - -
09.01.2021 21:00:00 - - - - - - - - - - -
09.01.2021 20:00:00 -3,7 -5,9 10 5 16 9 ENE 1019,0 13 0 0,0
09.01.2021 19:00:00 - - - - - - - - - - -

tt = temperature
td = dewpoint
ff = wind speed
fx = gusts
dd = wind direction
ppp = reduced air pressure
vv = visibility
sd = sunshine duration
rr = precipitation

Next stations